Wetterdaten: Sonntag, 03.01.2010
Datum Zeit Temp. A. Feuchte A. Luftdruck Regen Wind Richtung Richtung Sonnenschein UV Solar Windben
03.01.2010 00:00 -0,2 C 90 % 1016,1 hPa 0,0 mm 1,6 km/h (1 Bft) SW 225 0 min 0 UV-I 0 W/m 4,8 km/h (1 Bft)
03.01.2010 00:10 -0,2 C 90 % 1016,2 hPa 0,0 mm 0,0 km/h (0 Bft) SW 225 0 min 0 UV-I 0 W/m 4,8 km/h (1 Bft)
03.01.2010 00:20 -0,3 C 90 % 1016,2 hPa 0,0 mm 1,6 km/h (1 Bft) SW 225 0 min 0 UV-I 0 W/m 6,4 km/h (2 Bft)
03.01.2010 00:30 -0,3 C 90 % 1016,2 hPa 0,0 mm 1,6 km/h (1 Bft) SW 225 0 min 0 UV-I 0 W/m 6,4 km/h (2 Bft)
03.01.2010 00:40 -0,3 C 90 % 1016,1 hPa 0,0 mm 3,2 km/h (1 Bft) SW 225 0 min 0 UV-I 0 W/m 19,3 km/h (3 Bft)
03.01.2010 00:50 -0,3 C 90 % 1016,0 hPa 0,0 mm 1,6 km/h (1 Bft) W-SW 247 0 min 0 UV-I 0 W/m 8,0 km/h (2 Bft)
03.01.2010 01:00 -0,3 C 90 % 1015,9 hPa 0,0 mm 1,6 km/h (1 Bft) SW 225 0 min 0 UV-I 0 W/m 6,4 km/h (2 Bft)
03.01.2010 01:10 -0,3 C 90 % 1015,8 hPa 0,0 mm 1,6 km/h (1 Bft) SW 225 0 min 0 UV-I 0 W/m 4,8 km/h (1 Bft)
03.01.2010 01:20 -0,3 C 90 % 1015,8 hPa 0,0 mm 1,6 km/h (1 Bft) S-SW 202 0 min 0 UV-I 0 W/m 4,8 km/h (1 Bft)
03.01.2010 01:30 -0,3 C 90 % 1015,8 hPa 0,0 mm 0,0 km/h (0 Bft) SW 225 0 min 0 UV-I 0 W/m 4,8 km/h (1 Bft)
03.01.2010 01:40 -0,3 C 91 % 1015,6 hPa 0,3 mm 1,6 km/h (1 Bft) SW 225 0 min 0 UV-I 0 W/m 6,4 km/h (2 Bft)
03.01.2010 01:50 -0,3 C 91 % 1015,7 hPa 0,0 mm 1,6 km/h (1 Bft) SW 225 0 min 0 UV-I 0 W/m 6,4 km/h (2 Bft)
03.01.2010 02:00 -0,3 C 91 % 1015,6 hPa 0,0 mm 0,0 km/h (0 Bft) S-SW 202 0 min 0 UV-I 0 W/m 3,2 km/h (1 Bft)
03.01.2010 02:10 -0,3 C 91 % 1015,6 hPa 0,0 mm 0,0 km/h (0 Bft) SW 225 0 min 0 UV-I 0 W/m 4,8 km/h (1 Bft)
03.01.2010 02:20 -0,3 C 91 % 1015,6 hPa 0,0 mm 0,0 km/h (0 Bft) SW 225 0 min 0 UV-I 0 W/m 4,8 km/h (1 Bft)
03.01.2010 02:30 -0,3 C 91 % 1015,7 hPa 0,0 mm 0,0 km/h (0 Bft) SW 225 0 min 0 UV-I 0 W/m 4,8 km/h (1 Bft)
03.01.2010 02:40 -0,3 C 91 % 1015,7 hPa 0,0 mm 0,0 km/h (0 Bft) SW 225 0 min 0 UV-I 0 W/m 8,0 km/h (2 Bft)
03.01.2010 02:50 -0,3 C 91 % 1015,7 hPa 0,0 mm 0,0 km/h (0 Bft) W 270 0 min 0 UV-I 0 W/m 4,8 km/h (1 Bft)
03.01.2010 03:00 -0,3 C 91 % 1015,7 hPa 0,0 mm 1,6 km/h (1 Bft) W 270 0 min 0 UV-I 0 W/m 6,4 km/h (2 Bft)
03.01.2010 03:10 -0,3 C 91 % 1015,7 hPa 0,0 mm 1,6 km/h (1 Bft) SW 225 0 min 0 UV-I 0 W/m 6,4 km/h (2 Bft)
03.01.2010 03:20 -0,3 C 91 % 1015,6 hPa 0,0 mm 1,6 km/h (1 Bft) W-SW 247 0 min 0 UV-I 0 W/m 6,4 km/h (2 Bft)
03.01.2010 03:30 -0,3 C 91 % 1015,6 hPa 0,0 mm 1,6 km/h (1 Bft) SW 225 0 min 0 UV-I 0 W/m 6,4 km/h (2 Bft)
03.01.2010 03:40 -0,3 C 91 % 1015,5 hPa 0,0 mm 1,6 km/h (1 Bft) W 270 0 min 0 UV-I 0 W/m 6,4 km/h (2 Bft)
03.01.2010 03:50 -0,3 C 91 % 1015,4 hPa 0,0 mm 0,0 km/h (0 Bft) W-SW 247 0 min 0 UV-I 0 W/m 6,4 km/h (2 Bft)
03.01.2010 04:00 -0,3 C 91 % 1015,4 hPa 0,0 mm 1,6 km/h (1 Bft) W 270 0 min 0 UV-I 0 W/m 4,8 km/h (1 Bft)
03.01.2010 04:10 -0,3 C 91 % 1015,4 hPa 0,0 mm 0,0 km/h (0 Bft) W-SW 247 0 min 0 UV-I 0 W/m 4,8 km/h (1 Bft)
03.01.2010 04:20 -0,3 C 91 % 1015,4 hPa 0,0 mm 1,6 km/h (1 Bft) W-SW 247 0 min 0 UV-I 0 W/m 6,4 km/h (2 Bft)
03.01.2010 04:30 -0,3 C 91 % 1015,4 hPa 0,0 mm 1,6 km/h (1 Bft) W-SW 247 0 min 0 UV-I 0 W/m 4,8 km/h (1 Bft)
03.01.2010 04:40 -0,3 C 91 % 1015,4 hPa 0,0 mm 0,0 km/h (0 Bft) W-SW 247 0 min 0 UV-I 0 W/m 4,8 km/h (1 Bft)
03.01.2010 04:50 -0,3 C 91 % 1015,4 hPa 0,0 mm 0,0 km/h (0 Bft) W-SW 247 0 min 0 UV-I 0 W/m 4,8 km/h (1 Bft)
03.01.2010 05:00 -0,3 C 91 % 1015,3 hPa 0,0 mm 0,0 km/h (0 Bft) W-SW 247 0 min 0 UV-I 0 W/m 3,2 km/h (1 Bft)
03.01.2010 05:10 -0,3 C 91 % 1015,3 hPa 0,0 mm 0,0 km/h (0 Bft) W-SW 247 0 min 0 UV-I 0 W/m 4,8 km/h (1 Bft)
03.01.2010 05:20 -0,3 C 91 % 1015,3 hPa 0,0 mm 0,0 km/h (0 Bft) W-SW 247 0 min 0 UV-I 0 W/m 4,8 km/h (1 Bft)
03.01.2010 05:30 -0,3 C 91 % 1015,3 hPa 0,0 mm 0,0 km/h (0 Bft) W-SW 247 0 min 0 UV-I 0 W/m 1,6 km/h (1 Bft)
03.01.2010 05:40 -0,3 C 92 % 1015,4 hPa 0,0 mm 0,0 km/h (0 Bft) N 0 0 min 0 UV-I 0 W/m 0,0 km/h (0 Bft)
03.01.2010 05:50 -0,3 C 92 % 1015,3 hPa 0,0 mm 0,0 km/h (0 Bft) N 0 0 min 0 UV-I 0 W/m 0,0 km/h (0 Bft)
03.01.2010 06:00 -0,3 C 92 % 1015,4 hPa 0,0 mm 0,0 km/h (0 Bft) N 0 0 min 0 UV-I 0 W/m 0,0 km/h (0 Bft)
03.01.2010 06:10 -0,3 C 92 % 1015,4 hPa 0,0 mm 0,0 km/h (0 Bft) N 0 0 min 0 UV-I 0 W/m 0,0 km/h (0 Bft)
03.01.2010 06:20 -0,5 C 91 % 1015,4 hPa 0,0 mm 0,0 km/h (0 Bft) N 0 0 min 0 UV-I 0 W/m 0,0 km/h (0 Bft)
03.01.2010 06:30 -0,8 C 91 % 1015,4 hPa 0,0 mm 0,0 km/h (0 Bft) N 0 0 min 0 UV-I 0 W/m 0,0 km/h (0 Bft)
03.01.2010 06:40 -1,1 C 91 % 1015,4 hPa 0,3 mm 0,0 km/h (0 Bft) N 0 0 min 0 UV-I 0 W/m 0,0 km/h (0 Bft)
03.01.2010 06:50 -1,3 C 91 % 1015,3 hPa 0,0 mm 0,0 km/h (0 Bft) N 0 0 min 0 UV-I 0 W/m 0,0 km/h (0 Bft)
03.01.2010 07:00 -1,6 C 91 % 1015,4 hPa 0,0 mm 0,0 km/h (0 Bft) N 0 0 min 0 UV-I 0 W/m 0,0 km/h (0 Bft)
03.01.2010 07:10 -1,9 C 91 % 1015,4 hPa 0,0 mm 0,0 km/h (0 Bft) N 0 0 min 0 UV-I 0 W/m 0,0 km/h (0 Bft)
03.01.2010 07:20 -2,2 C 90 % 1015,5 hPa 0,0 mm 0,0 km/h (0 Bft) N 0 0 min 0 UV-I 0 W/m 0,0 km/h (0 Bft)
03.01.2010 07:30 -2,5 C 90 % 1015,5 hPa 0,0 mm 0,0 km/h (0 Bft) N 0 0 min 0 UV-I 0 W/m 0,0 km/h (0 Bft)
03.01.2010 07:40 -2,7 C 90 % 1015,5 hPa 0,0 mm 0,0 km/h (0 Bft) N 0 0 min 0 UV-I 0 W/m 0,0 km/h (0 Bft)
03.01.2010 07:50 -2,9 C 90 % 1015,7 hPa 0,0 mm 0,0 km/h (0 Bft) N 0 0 min 0 UV-I 0 W/m 0,0 km/h (0 Bft)
03.01.2010 08:00 -3,2 C 90 % 1015,9 hPa 0,0 mm 0,0 km/h (0 Bft) NO 45 0 min 0 UV-I 0 W/m 0,0 km/h (0 Bft)
03.01.2010 08:10 -3,3 C 90 % 1016,0 hPa 0,0 mm 0,0 km/h (0 Bft) N 0 0 min 0 UV-I 0 W/m 0,0 km/h (0 Bft)
03.01.2010 08:20 -3,4 C 90 % 1016,2 hPa 0,0 mm 0,0 km/h (0 Bft) N 0 0 min 0 UV-I 0 W/m 0,0 km/h (0 Bft)
03.01.2010 08:30 -3,6 C 90 % 1016,4 hPa 0,0 mm 0,0 km/h (0 Bft) N 0 0 min 0 UV-I 0 W/m 0,0 km/h (0 Bft)
03.01.2010 08:40 -3,7 C 90 % 1016,4 hPa 0,0 mm 0,0 km/h (0 Bft) N 0 0 min 0 UV-I 0 W/m 0,0 km/h (0 Bft)
03.01.2010 08:50 -3,8 C 90 % 1016,5 hPa 0,0 mm 0,0 km/h (0 Bft) N 0 0 min 0 UV-I 0 W/m 0,0 km/h (0 Bft)
03.01.2010 09:00 -3,8 C 90 % 1016,8 hPa 0,0 mm 0,0 km/h (0 Bft) N 0 0 min 0 UV-I 0 W/m 0,0 km/h (0 Bft)
03.01.2010 09:10 -3,8 C 90 % 1016,9 hPa 0,0 mm 0,0 km/h (0 Bft) N 0 0 min 0 UV-I 0 W/m 0,0 km/h (0 Bft)
03.01.2010 09:20 -3,8 C 91 % 1017,1 hPa 0,0 mm 0,0 km/h (0 Bft) N 0 0 min 0 UV-I 0 W/m 0,0 km/h (0 Bft)
03.01.2010 09:30 -3,8 C 91 % 1017,3 hPa 0,0 mm 0,0 km/h (0 Bft) N 0 0 min 0 UV-I 0 W/m 0,0 km/h (0 Bft)
03.01.2010 09:40 -3,8 C 91 % 1017,4 hPa 0,0 mm 0,0 km/h (0 Bft) N 0 0 min 0 UV-I 0 W/m 0,0 km/h (0 Bft)
03.01.2010 09:50 -3,8 C 91 % 1017,5 hPa 0,0 mm 0,0 km/h (0 Bft) N 0 0 min 0 UV-I 0 W/m 0,0 km/h (0 Bft)
03.01.2010 10:00 -3,8 C 91 % 1017,5 hPa 0,0 mm 0,0 km/h (0 Bft) N 0 0 min 0 UV-I 0 W/m 0,0 km/h (0 Bft)
03.01.2010 10:10 -3,8 C 91 % 1017,6 hPa 0,0 mm 0,0 km/h (0 Bft) N 0 0 min 0 UV-I 0 W/m 0,0 km/h (0 Bft)
03.01.2010 10:20 -3,7 C 91 % 1017,7 hPa 0,0 mm 0,0 km/h (0 Bft) N 0 0 min 0 UV-I 0 W/m 0,0 km/h (0 Bft)
03.01.2010 10:30 -3,7 C 91 % 1017,8 hPa 0,0 mm 0,0 km/h (0 Bft) N 0 0 min 0 UV-I 0 W/m 0,0 km/h (0 Bft)
03.01.2010 10:40 -3,7 C 91 % 1017,8 hPa 0,0 mm 0,0 km/h (0 Bft) N 0 0 min 0 UV-I 28 W/m 0,0 km/h (0 Bft)
03.01.2010 10:50 -3,6 C 91 % 1017,9 hPa 0,0 mm 0,0 km/h (0 Bft) N-NO 22 0 min 0 UV-I 26 W/m 4,8 km/h (1 Bft)
03.01.2010 11:00 -3,6 C 91 % 1018,0 hPa 0,0 mm 1,6 km/h (1 Bft) N-NO 22 0 min 0 UV-I 32 W/m 9,7 km/h (2 Bft)
03.01.2010 11:10 -3,5 C 91 % 1018,0 hPa 0,0 mm 1,6 km/h (1 Bft) N-NO 22 0 min 0 UV-I 35 W/m 6,4 km/h (2 Bft)
03.01.2010 11:20 -3,4 C 91 % 1018,1 hPa 0,0 mm 2,0 km/h (1 Bft) NW 306 0 min 0 UV-I 33 W/m 8,0 km/h (2 Bft)
03.01.2010 11:30 -3,3 C 91 % 1018,1 hPa 0,0 mm 1,3 km/h (1 Bft) NW 323 0 min 0 UV-I 33 W/m 4,8 km/h (1 Bft)
03.01.2010 11:40 -3,3 C 91 % 1018,2 hPa 0,0 mm 0,8 km/h (0 Bft) N-NW 330 0 min 0 UV-I 26 W/m 6,4 km/h (2 Bft)
03.01.2010 11:50 -3,3 C 91 % 1018,3 hPa 0,0 mm 1,3 km/h (1 Bft) N 11 0 min 0 UV-I 28 W/m 6,4 km/h (2 Bft)
03.01.2010 12:00 -3,3 C 91 % 1018,3 hPa 0,0 mm 0,7 km/h (0 Bft) N 355 0 min 0 UV-I 25 W/m 6,4 km/h (2 Bft)
03.01.2010 12:10 -3,2 C 91 % 1018,3 hPa 0,0 mm 0,3 km/h (0 Bft) N 355 0 min 0 UV-I 24 W/m 3,2 km/h (1 Bft)
03.01.2010 12:20 -3,2 C 91 % 1018,3 hPa 0,0 mm 0,7 km/h (0 Bft) N 350 0 min 0 UV-I 34 W/m 4,8 km/h (1 Bft)
03.01.2010 12:30 -3,2 C 91 % 1018,3 hPa 0,0 mm 0,7 km/h (0 Bft) NW 326 0 min 0 UV-I 41 W/m 4,8 km/h (1 Bft)
03.01.2010 12:40 -3,1 C 91 % 1018,3 hPa 0,0 mm 0,5 km/h (0 Bft) W 263 0 min 0 UV-I 85 W/m 4,8 km/h (1 Bft)
03.01.2010 12:50 -3,0 C 91 % 1018,4 hPa 0,3 mm 1,5 km/h (1 Bft) N 355 0 min 0 UV-I 86 W/m 9,7 km/h (2 Bft)
03.01.2010 13:00 -2,9 C 91 % 1018,4 hPa 0,0 mm 0,9 km/h (0 Bft) N-NW 348 0 min 0 UV-I 90 W/m 8,0 km/h (2 Bft)
03.01.2010 13:10 -2,9 C 90 % 1018,3 hPa 0,0 mm 1,5 km/h (1 Bft) NW 326 0 min 0 UV-I 88 W/m 9,7 km/h (2 Bft)
03.01.2010 13:20 -2,9 C 90 % 1018,4 hPa 0,0 mm 2,2 km/h (1 Bft) NW 306 0 min 0 UV-I 80 W/m 6,4 km/h (2 Bft)
03.01.2010 13:30 -2,9 C 90 % 1018,4 hPa 0,3 mm 1,1 km/h (1 Bft) N 355 0 min 0 UV-I 72 W/m 4,8 km/h (1 Bft)
03.01.2010 13:40 -2,9 C 90 % 1018,4 hPa 0,0 mm 1,7 km/h (1 Bft) NW 306 0 min 0 UV-I 74 W/m 8,0 km/h (2 Bft)
03.01.2010 13:50 -2,9 C 89 % 1018,5 hPa 0,0 mm 0,8 km/h (0 Bft) N-NW 340 0 min 0 UV-I 56 W/m 4,8 km/h (1 Bft)
03.01.2010 14:00 -2,9 C 89 % 1018,5 hPa 0,3 mm 0,4 km/h (0 Bft) N-NW 344 0 min 0 UV-I 42 W/m 3,2 km/h (1 Bft)
03.01.2010 14:10 -2,9 C 89 % 1018,6 hPa 0,0 mm 1,1 km/h (1 Bft) N 10 0 min 0 UV-I 25 W/m 6,4 km/h (2 Bft)
03.01.2010 14:20 -2,9 C 89 % 1018,6 hPa 0,0 mm 1,3 km/h (1 Bft) W-NW 294 0 min 0 UV-I 32 W/m 6,4 km/h (2 Bft)
03.01.2010 14:30 -3,1 C 89 % 1018,7 hPa 0,0 mm 2,0 km/h (1 Bft) NW 310 0 min 0 UV-I 30 W/m 9,7 km/h (2 Bft)
03.01.2010 14:40 -3,2 C 88 % 1018,8 hPa 0,3 mm 1,8 km/h (1 Bft) NW 306 0 min 0 UV-I 23 W/m 6,4 km/h (2 Bft)
03.01.2010 14:50 -3,3 C 88 % 1018,9 hPa 0,0 mm 2,2 km/h (1 Bft) NW 305 0 min 0 UV-I 22 W/m 8,0 km/h (2 Bft)
03.01.2010 15:00 -3,4 C 88 % 1019,0 hPa 0,0 mm 1,8 km/h (1 Bft) NW 304 0 min 0 UV-I 21 W/m 8,0 km/h (2 Bft)
03.01.2010 15:10 -3,6 C 88 % 1019,2 hPa 0,0 mm 1,1 km/h (1 Bft) N-NW 348 0 min 0 UV-I 19 W/m 9,7 km/h (2 Bft)
03.01.2010 15:20 -3,6 C 88 % 1019,3 hPa 0,0 mm 0,9 km/h (0 Bft) NW 324 0 min 0 UV-I 15 W/m 4,8 km/h (1 Bft)
03.01.2010 15:30 -3,7 C 87 % 1019,5 hPa 0,0 mm 1,0 km/h (0 Bft) NW 309 0 min 0 UV-I 13 W/m 4,8 km/h (1 Bft)
03.01.2010 15:40 -3,7 C 87 % 1019,5 hPa 0,0 mm 1,1 km/h (1 Bft) N-NW 334 0 min 0 UV-I 11 W/m 8,0 km/h (2 Bft)
03.01.2010 15:50 -3,7 C 87 % 1019,7 hPa 0,3 mm 0,7 km/h (0 Bft) NW 318 0 min 0 UV-I 10 W/m 4,8 km/h (1 Bft)
03.01.2010 16:00 -3,7 C 87 % 1019,8 hPa 0,0 mm 0,0 km/h (0 Bft) N-NW 337 0 min 0 UV-I 7 W/m 4,8 km/h (1 Bft)
03.01.2010 16:10 -3,7 C 88 % 1019,9 hPa 0,0 mm 1,6 km/h (1 Bft) NW 315 0 min 0 UV-I 0 W/m 4,8 km/h (1 Bft)
03.01.2010 16:20 -3,8 C 88 % 1020,0 hPa 0,0 mm 1,6 km/h (1 Bft) W 270 0 min 0 UV-I 0 W/m 8,0 km/h (2 Bft)
03.01.2010 16:30 -3,8 C 88 % 1020,0 hPa 0,0 mm 0,5 km/h (0 Bft) N-NW 337 0 min 0 UV-I 0 W/m 4,8 km/h (1 Bft)
03.01.2010 16:40 -3,8 C 88 % 1020,0 hPa 0,0 mm 0,8 km/h (0 Bft) NW 307 0 min 0 UV-I 0 W/m 4,8 km/h (1 Bft)
03.01.2010 16:50 -3,9 C 88 % 1020,1 hPa 0,0 mm 1,3 km/h (1 Bft) NW 306 0 min 0 UV-I 0 W/m 8,0 km/h (2 Bft)
03.01.2010 17:00 -3,9 C 88 % 1020,1 hPa 0,0 mm 0,6 km/h (0 Bft) N 360 0 min 0 UV-I 0 W/m 4,8 km/h (1 Bft)
03.01.2010 17:10 -3,9 C 88 % 1020,0 hPa 0,0 mm 0,2 km/h (0 Bft) N-NW 347 0 min 0 UV-I 0 W/m 3,2 km/h (1 Bft)
03.01.2010 17:20 -3,9 C 88 % 1020,1 hPa 0,0 mm 1,1 km/h (1 Bft) NW 317 0 min 0 UV-I 0 W/m 6,4 km/h (2 Bft)
03.01.2010 17:30 -4,0 C 88 % 1020,1 hPa 0,0 mm 0,5 km/h (0 Bft) W-NW 299 0 min 0 UV-I 0 W/m 4,8 km/h (1 Bft)
03.01.2010 17:40 -4,0 C 88 % 1020,1 hPa 0,0 mm 0,9 km/h (0 Bft) N-NW 333 0 min 0 UV-I 0 W/m 4,8 km/h (1 Bft)
03.01.2010 17:50 -4,1 C 88 % 1019,9 hPa 0,0 mm 0,5 km/h (0 Bft) N-NW 336 0 min 0 UV-I 0 W/m 4,8 km/h (1 Bft)
03.01.2010 18:00 -4,1 C 88 % 1019,9 hPa 0,0 mm 0,4 km/h (0 Bft) N-NW 342 0 min 0 UV-I 0 W/m 3,2 km/h (1 Bft)
03.01.2010 18:10 -4,1 C 88 % 1020,1 hPa 0,0 mm 0,3 km/h (0 Bft) NW 318 0 min 0 UV-I 0 W/m 4,8 km/h (1 Bft)
03.01.2010 18:20 -4,1 C 88 % 1020,1 hPa 0,0 mm 1,0 km/h (0 Bft) NW 308 0 min 0 UV-I 0 W/m 4,8 km/h (1 Bft)
03.01.2010 18:30 -4,1 C 88 % 1020,0 hPa 0,0 mm 0,2 km/h (0 Bft) NW 319 0 min 0 UV-I 0 W/m 3,2 km/h (1 Bft)
03.01.2010 18:40 -4,1 C 88 % 1020,0 hPa 0,0 mm 0,4 km/h (0 Bft) NW 317 0 min 0 UV-I 0 W/m 3,2 km/h (1 Bft)
03.01.2010 18:50 -4,1 C 88 % 1020,1 hPa 0,0 mm 0,2 km/h (0 Bft) N-NW 337 0 min 0 UV-I 0 W/m 1,6 km/h (1 Bft)
03.01.2010 19:00 -4,2 C 88 % 1020,3 hPa 0,0 mm 0,6 km/h (0 Bft) W-NW 286 0 min 0 UV-I 0 W/m 6,4 km/h (2 Bft)
03.01.2010 19:10 -4,1 C 89 % 1020,4 hPa 0,0 mm 0,5 km/h (0 Bft) W-NW 290 0 min 0 UV-I 0 W/m 4,8 km/h (1 Bft)
03.01.2010 19:20 -4,1 C 89 % 1020,5 hPa 0,0 mm 0,2 km/h (0 Bft) N-NW 328 0 min 0 UV-I 0 W/m 3,2 km/h (1 Bft)
03.01.2010 19:30 -4,1 C 89 % 1020,4 hPa 0,0 mm 0,5 km/h (0 Bft) W-NW 302 0 min 0 UV-I 0 W/m 4,8 km/h (1 Bft)
03.01.2010 19:40 -4,1 C 89 % 1020,6 hPa 0,0 mm 0,4 km/h (0 Bft) NW 313 0 min 0 UV-I 0 W/m 4,8 km/h (1 Bft)
03.01.2010 19:50 -4,1 C 89 % 1020,5 hPa 0,0 mm 0,4 km/h (0 Bft) NW 311 0 min 0 UV-I 0 W/m 4,8 km/h (1 Bft)
03.01.2010 20:00 -4,1 C 89 % 1020,6 hPa 0,0 mm 0,1 km/h (0 Bft) NW 311 0 min 0 UV-I 0 W/m 3,2 km/h (1 Bft)
03.01.2010 20:10 -4,1 C 89 % 1020,7 hPa 0,0 mm 0,3 km/h (0 Bft) NW 311 0 min 0 UV-I 0 W/m 3,2 km/h (1 Bft)
03.01.2010 20:20 -4,1 C 89 % 1020,6 hPa 0,0 mm 0,7 km/h (0 Bft) NW 321 0 min 0 UV-I 0 W/m 4,8 km/h (1 Bft)
03.01.2010 20:30 -4,1 C 89 % 1020,8 hPa 0,0 mm 0,0 km/h (0 Bft) NW 321 0 min 0 UV-I 0 W/m 1,6 km/h (1 Bft)
03.01.2010 20:40 -4,1 C 89 % 1020,8 hPa 0,0 mm 0,1 km/h (0 Bft) NW 321 0 min 0 UV-I 0 W/m 1,6 km/h (1 Bft)
03.01.2010 20:50 -4,1 C 89 % 1020,9 hPa 0,0 mm 0,7 km/h (0 Bft) NW 311 0 min 0 UV-I 0 W/m 3,2 km/h (1 Bft)
03.01.2010 21:00 -4,1 C 89 % 1020,9 hPa 0,0 mm 0,5 km/h (0 Bft) NW 309 0 min 0 UV-I 0 W/m 4,8 km/h (1 Bft)
03.01.2010 21:10 -4,1 C 89 % 1020,8 hPa 0,0 mm 0,2 km/h (0 Bft) NW 309 0 min 0 UV-I 0 W/m 3,2 km/h (1 Bft)
03.01.2010 21:20 -4,1 C 89 % 1020,7 hPa 0,0 mm 0,0 km/h (0 Bft) NW 309 0 min 0 UV-I 0 W/m 1,6 km/h (1 Bft)
03.01.2010 21:30 -4,2 C 89 % 1021,0 hPa 0,0 mm 0,5 km/h (0 Bft) N 360 0 min 0 UV-I 0 W/m 4,8 km/h (1 Bft)
03.01.2010 21:40 -4,2 C 89 % 1021,0 hPa 0,0 mm 0,2 km/h (0 Bft) N 360 0 min 0 UV-I 0 W/m 3,2 km/h (1 Bft)
03.01.2010 21:50 -4,2 C 89 % 1021,1 hPa 0,0 mm 1,8 km/h (1 Bft) N 9 0 min 0 UV-I 0 W/m 6,4 km/h (2 Bft)
03.01.2010 22:00 -4,1 C 89 % 1021,1 hPa 0,0 mm 2,1 km/h (1 Bft) N-NO 24 0 min 0 UV-I 0 W/m 8,0 km/h (2 Bft)
03.01.2010 22:10 -4,1 C 89 % 1021,0 hPa 0,0 mm 1,3 km/h (1 Bft) N-NW 332 0 min 0 UV-I 0 W/m 6,4 km/h (2 Bft)
03.01.2010 22:20 -4,1 C 89 % 1021,0 hPa 0,0 mm 1,3 km/h (1 Bft) N 360 0 min 0 UV-I 0 W/m 4,8 km/h (1 Bft)
03.01.2010 22:30 -4,1 C 89 % 1021,1 hPa 0,0 mm 0,9 km/h (0 Bft) N-NO 12 0 min 0 UV-I 0 W/m 9,7 km/h (2 Bft)
03.01.2010 22:40 -4,1 C 89 % 1021,1 hPa 0,0 mm 1,2 km/h (1 Bft) N 355 0 min 0 UV-I 0 W/m 6,4 km/h (2 Bft)
03.01.2010 22:50 -4,1 C 89 % 1021,1 hPa 0,0 mm 2,1 km/h (1 Bft) N 9 0 min 0 UV-I 0 W/m 8,0 km/h (2 Bft)
03.01.2010 23:00 -4,1 C 89 % 1021,0 hPa 0,0 mm 1,9 km/h (1 Bft) N 11 0 min 0 UV-I 0 W/m 6,4 km/h (2 Bft)
03.01.2010 23:10 -4,0 C 89 % 1021,0 hPa 0,0 mm 1,1 km/h (1 Bft) N-NO 14 0 min 0 UV-I 0 W/m 6,4 km/h (2 Bft)
03.01.2010 23:20 -4,0 C 89 % 1020,8 hPa 0,0 mm 0,4 km/h (0 Bft) N-NO 14 0 min 0 UV-I 0 W/m 3,2 km/h (1 Bft)
03.01.2010 23:30 -4,0 C 89 % 1020,8 hPa 0,0 mm 0,0 km/h (0 Bft) N-NO 22 0 min 0 UV-I 0 W/m 4,8 km/h (1 Bft)
03.01.2010 23:40 -4,0 C 89 % 1020,9 hPa 0,0 mm 1,6 km/h (1 Bft) N 360 0 min 0 UV-I 0 W/m 6,4 km/h (2 Bft)
03.01.2010 23:50 -4,0 C 89 % 1021,0 hPa 0,0 mm 1,6 km/h (1 Bft) N-NO 22 0 min 0 UV-I 0 W/m 4,8 km/h (1 Bft)
_ Min-Zeit 18:50 15:30 05:00 - 00:10 - - - - - 05:40
Minimum _ -4,2 C 87 % 1015,3 hPa - 0,0 km/h (0 Bft) - - - - - 0,0 km/h (0 Bft)
_ Max-Zeit 00:00 05:40 21:50 01:40 00:40 - - 00:00 00:00 13:00 00:40
Maximum _ -0,2 C 92 % 1021,1 hPa 0,3 mm 3,2 km/h
SW (1 Bft)
- - 0 min 0 UV-I 90 W/m 19,3 km/h
NW (3 Bft)
Durchschnitt _ -2,7 C 90 % 1018,0 hPa #1,8 mm 0,7 km/h (0 Bft) NW - #0 min. 0 UV-I 38 W/m 4,4 km/h (1 Bft)